JAL2310 RJOM-RJOO

Flight info

Callsign JAL2310
Flight time 0h 37m
Altitude 27000
Route SAKAR ROSIE Y231 MIRIO Y401 KAINA Y753 IZUMI
Aircraft E170/M-SDE3GILORVW/S

Departure

Time 2026-05-06 14:38
Airport Matsuyama Airport (RJOM)

Arrival

Time 2026-05-06 15:15
Airport Osaka Itami International Airport (RJOO)
Time Latitude Longitude Altitude Speed Heading
2026-05-06 14:18 33.82836 132.70367 24 ft 0 kts 38°
2026-05-06 14:31 33.82835 132.70366 24 ft 1 kts 38°
2026-05-06 14:31 33.82823 132.70355 25 ft 2 kts 38°
2026-05-06 14:32 33.82811 132.70344 24 ft 2 kts 38°
2026-05-06 14:32 33.82800 132.70334 24 ft 2 kts 38°
2026-05-06 14:32 33.82787 132.70322 24 ft 2 kts 38°
2026-05-06 14:32 33.82779 132.70314 23 ft 0 kts 38°
2026-05-06 14:34 33.82785 132.70316 23 ft 1 kts 340°
2026-05-06 14:34 33.82785 132.70282 23 ft 7 kts 257°
2026-05-06 14:34 33.82782 132.70186 21 ft 15 kts 300°
2026-05-06 14:35 33.82866 132.70067 18 ft 21 kts 310°
2026-05-06 14:35 33.82967 132.69926 15 ft 23 kts 311°
2026-05-06 14:35 33.83067 132.69786 12 ft 20 kts 310°
2026-05-06 14:35 33.83171 132.69643 12 ft 24 kts 311°
2026-05-06 14:36 33.83280 132.69490 12 ft 24 kts 310°
2026-05-06 14:36 33.83384 132.69345 13 ft 20 kts 311°
2026-05-06 14:36 33.83472 132.69222 14 ft 19 kts 311°
2026-05-06 14:36 33.83543 132.69121 15 ft 15 kts 305°
2026-05-06 14:37 33.83530 132.69031 15 ft 8 kts 224°
2026-05-06 14:37 33.83506 132.69005 15 ft 5 kts 220°
2026-05-06 14:37 33.83452 132.68970 13 ft 12 kts 180°
2026-05-06 14:37 33.83356 132.69080 14 ft 43 kts 131°
2026-05-06 14:38 33.82982 132.69606 10 ft 118 kts 130°
2026-05-06 14:38 33.82350 132.70500 250 ft 151 kts 130°
2026-05-06 14:38 33.81639 132.71489 783 ft 168 kts 130°
2026-05-06 14:38 33.80844 132.72578 1479 ft 175 kts 130°
2026-05-06 14:39 33.79913 132.73543 2026 ft 192 kts 158°
2026-05-06 14:39 33.78534 132.73564 2544 ft 211 kts 195°
2026-05-06 14:39 33.77127 132.73050 3366 ft 213 kts 196°
2026-05-06 14:39 33.75692 132.72527 4018 ft 224 kts 197°
2026-05-06 14:40 33.74116 132.71953 4385 ft 250 kts 197°
2026-05-06 14:40 33.72417 132.71336 5031 ft 262 kts 197°
2026-05-06 14:40 33.70659 132.70699 5887 ft 264 kts 198°
2026-05-06 14:40 33.68909 132.70067 6779 ft 264 kts 197°
2026-05-06 14:41 33.67092 132.70035 7552 ft 269 kts 163°
2026-05-06 14:41 33.65468 132.71162 8273 ft 275 kts 144°
2026-05-06 14:41 33.63964 132.72540 8970 ft 278 kts 144°
2026-05-06 14:41 33.62420 132.73953 9639 ft 282 kts 144°
2026-05-06 14:42 33.60857 132.75382 10290 ft 285 kts 144°
2026-05-06 14:42 33.59271 132.76836 10919 ft 289 kts 141°
2026-05-06 14:42 33.58087 132.78732 11472 ft 295 kts 109°
2026-05-06 14:42 33.57894 132.81169 12056 ft 298 kts 79°
2026-05-06 14:43 33.58369 132.83594 12634 ft 301 kts 76°
2026-05-06 14:43 33.58860 132.86008 13237 ft 303 kts 76°
2026-05-06 14:43 33.59358 132.88474 13836 ft 305 kts 76°
2026-05-06 14:43 33.59855 132.90947 14399 ft 308 kts 76°
2026-05-06 14:44 33.60370 132.93515 14510 ft 329 kts 76°
2026-05-06 14:44 33.60920 132.96265 14656 ft 346 kts 76°
2026-05-06 14:44 33.61483 132.99087 15045 ft 353 kts 76°
2026-05-06 14:45 33.62625 133.04813 16168 ft 355 kts 76°
2026-05-06 14:45 33.63191 133.07658 16733 ft 354 kts 76°
2026-05-06 14:45 33.63764 133.10544 17259 ft 356 kts 76°
2026-05-06 14:45 33.64333 133.13411 17712 ft 359 kts 75°
2026-05-06 14:46 33.64911 133.16327 18152 ft 362 kts 75°
2026-05-06 14:46 33.65497 133.19287 18580 ft 366 kts 75°
2026-05-06 14:46 33.66083 133.22249 19017 ft 368 kts 75°
2026-05-06 14:46 33.66678 133.25264 19457 ft 371 kts 75°
2026-05-06 14:47 33.67267 133.28255 19862 ft 374 kts 75°
2026-05-06 14:47 33.67872 133.31326 20268 ft 378 kts 75°
2026-05-06 14:47 33.68471 133.34375 20664 ft 381 kts 75°
2026-05-06 14:47 33.69079 133.37471 21060 ft 383 kts 75°
2026-05-06 14:48 33.69690 133.40585 21445 ft 386 kts 75°
2026-05-06 14:48 33.70304 133.43726 21832 ft 388 kts 75°
2026-05-06 14:48 33.70924 133.46895 22195 ft 391 kts 75°
2026-05-06 14:48 33.71498 133.50099 22516 ft 395 kts 79°
2026-05-06 14:49 33.71912 133.53355 22825 ft 399 kts 79°
2026-05-06 14:49 33.72335 133.56642 23162 ft 402 kts 79°
2026-05-06 14:49 33.72766 133.59963 23534 ft 404 kts 79°
2026-05-06 14:49 33.73198 133.63300 23881 ft 406 kts 79°
2026-05-06 14:50 33.73630 133.66640 24200 ft 409 kts 79°
2026-05-06 14:50 33.74066 133.70020 24536 ft 411 kts 79°
2026-05-06 14:50 33.74505 133.73431 24882 ft 413 kts 79°
2026-05-06 14:50 33.74947 133.76872 25222 ft 415 kts 79°
2026-05-06 14:51 33.75384 133.80281 25502 ft 418 kts 79°
2026-05-06 14:51 33.75826 133.83740 25747 ft 422 kts 79°
2026-05-06 14:51 33.76272 133.87233 26052 ft 425 kts 79°
2026-05-06 14:51 33.76716 133.90715 26333 ft 427 kts 79°
2026-05-06 14:52 33.77166 133.94269 26660 ft 428 kts 79°
2026-05-06 14:52 33.77612 133.97789 26973 ft 429 kts 79°
2026-05-06 14:52 33.78058 134.01315 27077 ft 428 kts 79°
2026-05-06 14:52 33.78504 134.04851 27103 ft 430 kts 80°
2026-05-06 14:53 33.78951 134.08401 27104 ft 434 kts 80°
2026-05-06 14:53 33.79398 134.11963 27096 ft 434 kts 80°
2026-05-06 14:53 33.79852 134.15590 27095 ft 439 kts 80°
2026-05-06 14:53 33.80302 134.19200 27096 ft 436 kts 80°
2026-05-06 14:54 33.80805 134.22797 27091 ft 440 kts 73°
2026-05-06 14:54 33.81847 134.26193 27128 ft 435 kts 64°
2026-05-06 14:54 33.83138 134.29512 27136 ft 433 kts 62°
2026-05-06 14:54 33.84463 134.32770 26855 ft 438 kts 61°
2026-05-06 14:55 33.85812 134.36046 26388 ft 436 kts 61°
2026-05-06 14:55 33.87143 134.39269 25904 ft 430 kts 60°
2026-05-06 14:55 33.88454 134.42445 25440 ft 425 kts 61°
2026-05-06 14:55 33.89767 134.45627 24972 ft 420 kts 61°
2026-05-06 14:56 33.91057 134.48753 24508 ft 419 kts 61°
2026-05-06 14:56 33.92336 134.51859 24054 ft 413 kts 61°
2026-05-06 14:56 33.93594 134.54915 23609 ft 410 kts 61°
2026-05-06 14:56 33.94861 134.57996 23159 ft 404 kts 61°
2026-05-06 14:57 33.96089 134.60985 22715 ft 399 kts 61°
2026-05-06 14:57 33.97315 134.63971 22271 ft 397 kts 61°
2026-05-06 14:57 33.98528 134.66927 21838 ft 395 kts 62°
2026-05-06 14:57 33.99746 134.69897 21398 ft 394 kts 62°
2026-05-06 14:58 34.00941 134.72816 20969 ft 392 kts 62°
2026-05-06 14:58 34.02135 134.75735 20535 ft 388 kts 63°
2026-05-06 14:58 34.03322 134.78641 20107 ft 385 kts 62°
2026-05-06 14:58 34.04501 134.81528 19683 ft 380 kts 63°
2026-05-06 14:59 34.05651 134.84345 19271 ft 377 kts 63°
2026-05-06 14:59 34.06807 134.87180 18843 ft 377 kts 63°
2026-05-06 14:59 34.07952 134.89992 18435 ft 373 kts 63°
2026-05-06 14:59 34.09098 134.92807 18031 ft 371 kts 63°
2026-05-06 15:00 34.10232 134.95593 17612 ft 368 kts 63°
2026-05-06 15:00 34.11353 134.98354 17218 ft 367 kts 63°
2026-05-06 15:00 34.12465 135.01092 16812 ft 363 kts 63°
2026-05-06 15:00 34.13569 135.03813 16417 ft 360 kts 63°
2026-05-06 15:01 34.14648 135.06476 16017 ft 351 kts 63°
2026-05-06 15:01 34.15696 135.09062 15632 ft 340 kts 63°
2026-05-06 15:01 34.16718 135.11587 15254 ft 331 kts 63°
2026-05-06 15:01 34.17716 135.14053 14914 ft 325 kts 63°
2026-05-06 15:02 34.18705 135.16501 14557 ft 324 kts 64°
2026-05-06 15:02 34.19699 135.18961 14196 ft 325 kts 64°
2026-05-06 15:02 34.20678 135.21387 13828 ft 323 kts 64°
2026-05-06 15:02 34.21745 135.23778 13467 ft 323 kts 50°
2026-05-06 15:03 34.23417 135.25532 13160 ft 320 kts 33°
2026-05-06 15:03 34.25262 135.27063 12668 ft 321 kts 33°
2026-05-06 15:03 34.27073 135.28552 12298 ft 316 kts 33°
2026-05-06 15:03 34.28893 135.30045 11949 ft 312 kts 33°
2026-05-06 15:04 34.30672 135.31500 11615 ft 310 kts 33°
2026-05-06 15:04 34.32463 135.32967 11265 ft 310 kts 33°
2026-05-06 15:04 34.34244 135.34425 10922 ft 309 kts 32°
2026-05-06 15:04 34.36006 135.35869 10582 ft 307 kts 33°
2026-05-06 15:05 34.37763 135.37308 10241 ft 304 kts 33°
2026-05-06 15:05 34.39518 135.38748 9910 ft 303 kts 33°
2026-05-06 15:05 34.41262 135.40178 9570 ft 302 kts 32°
2026-05-06 15:05 34.42979 135.41588 9248 ft 296 kts 33°
2026-05-06 15:06 34.44413 135.43303 8923 ft 288 kts 57°
2026-05-06 15:06 34.45408 135.45361 8612 ft 284 kts 60°
2026-05-06 15:06 34.46384 135.47450 8294 ft 282 kts 60°
2026-05-06 15:06 34.47341 135.49515 7981 ft 281 kts 60°
2026-05-06 15:07 34.48276 135.51541 7662 ft 274 kts 60°
2026-05-06 15:07 34.49189 135.53525 7399 ft 264 kts 60°
2026-05-06 15:07 34.50071 135.55441 7108 ft 255 kts 60°
2026-05-06 15:07 34.50921 135.57292 6799 ft 247 kts 61°
2026-05-06 15:08 34.51740 135.59076 6536 ft 240 kts 61°
2026-05-06 15:08 34.52549 135.60837 6270 ft 235 kts 61°
2026-05-06 15:08 34.53327 135.62534 6010 ft 229 kts 61°
2026-05-06 15:08 34.54112 135.64195 5762 ft 225 kts 52°
2026-05-06 15:09 34.55383 135.65204 5535 ft 224 kts
2026-05-06 15:09 34.56921 135.65335 5279 ft 223 kts
2026-05-06 15:09 34.58484 135.65370 4989 ft 223 kts
2026-05-06 15:09 34.60017 135.65306 4719 ft 220 kts 343°
2026-05-06 15:10 34.61285 135.64340 4507 ft 218 kts 316°
2026-05-06 15:10 34.62359 135.63060 4210 ft 215 kts 315°
2026-05-06 15:10 34.63410 135.61795 3905 ft 211 kts 315°
2026-05-06 15:10 34.64444 135.60553 3610 ft 208 kts 315°
2026-05-06 15:11 34.65471 135.59319 3321 ft 205 kts 315°
2026-05-06 15:11 34.66481 135.58105 3032 ft 202 kts 315°
2026-05-06 15:11 34.67463 135.56926 2757 ft 199 kts 315°
2026-05-06 15:11 34.68443 135.55747 2479 ft 194 kts 316°
2026-05-06 15:12 34.69355 135.54651 2242 ft 175 kts 316°
2026-05-06 15:12 34.70166 135.53674 2028 ft 159 kts 316°
2026-05-06 15:12 34.70937 135.52747 1791 ft 153 kts 317°
2026-05-06 15:12 34.71692 135.51839 1582 ft 153 kts 316°
2026-05-06 15:13 34.72450 135.50926 1373 ft 153 kts 316°
2026-05-06 15:13 34.73199 135.50024 1148 ft 144 kts 317°
2026-05-06 15:13 34.73886 135.49196 954 ft 137 kts 317°
2026-05-06 15:13 34.74565 135.48378 779 ft 138 kts 316°
2026-05-06 15:14 34.75251 135.47551 603 ft 137 kts 317°
2026-05-06 15:14 34.75924 135.46742 406 ft 136 kts 315°
2026-05-06 15:14 34.76591 135.45926 241 ft 136 kts 316°
2026-05-06 15:14 34.77261 135.45125 64 ft 133 kts 317°
2026-05-06 15:15 34.77889 135.44377 29 ft 110 kts 315°
2026-05-06 15:15 34.78314 135.43864 32 ft 65 kts 315°
2026-05-06 15:15 34.78578 135.43578 37 ft 36 kts 329°
2026-05-06 15:15 34.78742 135.43480 39 ft 23 kts 334°
2026-05-06 15:16 34.78895 135.43420 40 ft 23 kts
2026-05-06 15:16 34.79040 135.43486 43 ft 15 kts 49°
2026-05-06 15:16 34.79131 135.43524 44 ft 14 kts 327°
2026-05-06 15:16 34.79195 135.43466 47 ft 10 kts 341°
2026-05-06 15:17 34.79253 135.43495 50 ft 8 kts 44°
2026-05-06 15:17 34.79287 135.43556 52 ft 9 kts 76°
2026-05-06 15:17 34.79308 135.43639 53 ft 11 kts 58°
2026-05-06 15:17 34.79351 135.43716 55 ft 7 kts 59°
2026-05-06 15:18 34.79319 135.43767 54 ft 12 kts 171°
2026-05-06 15:18 34.79292 135.43773 52 ft 0 kts 165°